Current Version              Previous Version:    01  02  03  04  05  06  07  08  09  10  11  12  13  14  15  16  17  18  19  20  21  22  23  24  25  26  27  28  29  30  
   31  32  33  34  35  36  37  38  39  40  41  42  43  44  45  46  47  48  49  50  51  52  53  54  55  56  57  58  59  60  

[Printable]
595
ASUS44 KLUB 210401
RWRTX
WEST TEXAS WEATHER ROUNDUP
NATIONAL WEATHER SERVICE LUBBOCK TX
1100 PM CDT SAT SEP 20 2014

NOTE: "FAIR" INDICATES FEW OR NO CLOUDS BELOW 12,000 FEET WITH NO
SIGNIFICANT WEATHER AND/OR OBSTRUCTIONS TO VISIBILITY.

TXZ004-006>008-010-012-014-016-OKZ002-210500-
TEXAS PANHANDLE/OKLAHOMA PANHANDLE

CITY           SKY/WX    TMP DP  RH WIND       PRES   REMARKS
AMARILLO       CLEAR     69  65  86 S7        30.16R
BORGER         CLEAR     76  64  66 S10       30.12R
CANADIAN       CLEAR     76  69  79 S10G16    30.08R
DALHART        CLEAR     69  60  73 S3        30.17R
DUMAS          CLEAR     66  58  75 S5        30.15R
GUYMON         MOCLDY    75  62  64 NW6       30.11R
HEREFORD       CLEAR     69  67  94 S7        30.18R
PAMPA          CLEAR     70  64  82 S12       30.14R
PERRYTON       CLEAR     72  62  70 S7        30.10R
$$

TXZ026-029-035-045-048-210500-
SOUTHERN PANHANDLE/SOUTH PLAINS/ROLLING PLAINS

CITY           SKY/WX    TMP DP  RH WIND       PRES   REMARKS
CHILDRESS      CLOUDY    75  71  87 S5        30.09R
SEMINOLE       CLOUDY    70  69  97 E9        30.12S FOG
LUBBOCK        MOCLDY    70  68  93 SE6       30.14R
PLAINVIEW      CLOUDY    70  68  95 SE6       30.14R
SNYDER         PTCLDY    71  69  93 E5        30.10R
$$

TXZ052-054-060>062-072-078-127-140-154-169-210500-
PERMIAN BASIN/CONCHO VALLEY/BIG COUNTRY/EDWARDS PLATEAU

CITY           SKY/WX    TMP DP  RH WIND       PRES   REMARKS
ABILENE        CLOUDY    75  73  93 SE3       30.06S
BIG SPRING     CLOUDY    74  71  91 E5        30.10S
BRADY          CLEAR     73  70  88 E6        30.05R
JUNCTION       PTCLDY    77  69  76 E5        30.04R
MIDLAND        CLOUDY    73  70  90 E7        30.08S
ODESSA         MOCLDY    73  69  87 SE9       30.08S
SAN ANGELO     CLOUDY    74  71  91 E5        30.04S
SONORA         MOCLDY    77  70  78 SE3       30.09S
SWEETWATER     PTCLDY    72  72 100 SE5       30.11R
WINK           MOCLDY    76  71  85 SE12      30.03S
$$

TXZ055-058-074-075-080-082-210500-
FAR WEST/SOUTHWEST MOUNTAINS/TRANS PECOS

CITY           SKY/WX    TMP DP  RH WIND       PRES   REMARKS
ALPINE         CLEAR     67  64  89 CALM      30.19S
DRYDEN           N/A     77  72  84 NE8       30.01R
EL PASO        PTCLDY    77  64  64 NE6       30.07R
FORT STOCKTON  PTCLDY    73  69  87 S5        30.06R
GUADALUPE PASS PTCLDY    67  65  93 NE23        N/A
MARFA          CLEAR     64  64 100 NE6       30.18S
PRESIDIO       FAIR      79  64  61 NE6       30.02R
$$

TXZ014-016-019-021>030-083-210500
TEXAS TECH WEST TEXAS MESONET/TEXAS PANHANDLE/NORTHERN SOUTH PLAINS

CITY           SKY/WX    TMP DP  RH WIND       PRES   REMARKS
ABERNATHY 5ENE   N/A     68  66  93 SE5       30.16R
AMARILLO 9NNE    N/A     68  64  88 S6        30.14R
AMARILLO 7SSE    N/A     68  66  93 S6        30.17R
AMHERST 1NE      N/A     67  67  98 E6        30.17R
BOOTLEG 11WNW    N/A     65  64  94 SE6       30.22R
CANADIAN 6E      N/A     73  67  79 S10       30.08R
CAPROCK CYN SP   N/A     70  69  95 SW6       30.12R
CHILDRESS 2NNE   N/A     73  70  89 SE5       30.08R
CLARENDON 2WSW   N/A     72  66  83 S8        30.13R
CLAUDE 12SW      N/A     70  66  86 SE7       30.16R
DIMMITT 2NE      N/A     68  65  92 SE6       30.17R
FLOYDADA 2NNE    N/A     70  68  96 SE6       30.14R
FRIONA 2NE       N/A     67  65  91 SE7       30.19R
GOODLETT 3W      N/A     75  68  78 S2        30.05R
HART 3N          N/A     66  64  96 E2        30.17R
HEREFORD 2NW     N/A     67  64  89 S5        30.17R
MCLEAN 1E        N/A     70  66  89 S7        30.11R
MEMPHIS 1NE      N/A     73  68  85 S1        30.09R
MULESHOE 2SSW    N/A     65  63  95 E6        30.16R
OLTON 6S         N/A     67  65  92 SE5       30.16R
PALO DURO SP     N/A     71  66  83 S5        30.17R
PAMPA 2E         N/A     70  66  87 S9        30.14R
PLAINVIEW 1S     N/A     69  67  95 SE5       30.14R
SILVERTON 7ESE   N/A     69  67  93 S6        30.14R
TULIA 2ENE       N/A     68  66  93 SE5       30.16R
TURKEY 2WSW      N/A     72  69  91 S5        30.10R
UMBARGER 3NNE    N/A     68  66  92 S7        30.17R
$$

TXZ033>036-039>041-045>048-210500
TEXAS TECH WEST TEXAS MESONET/SOUTH PLAINS

CITY           SKY/WX    TMP DP  RH WIND       PRES   REMARKS
AIKEN 3WSW       N/A     69  69  98 E5        30.16R
ANDREWS 2NE      N/A     71  68  88 E10       30.11R
ANTON 6SSW       N/A     68  67  94 E6        30.15R
BROWNFIELD 2S    N/A     69  67  95 E7        30.13R
DENVR CTY 7WNW   N/A     69  66  90 E10       30.13R
GAIL 2ESE        N/A     71  69  92 E3        30.09R
LAMESA 2SE       N/A     71  69  94 SE6       30.11R
LEVELLAND 4S     N/A     68  65  92 E5        30.15R
LUBBOCK 3WNW     N/A     71  67  88 E3        30.14R
MORTON 1ENE      N/A     68  67  96 E5        30.16R
ODONNELL 1N      N/A     69  66  92 E7        30.12R
PLAINS 3N        N/A     69  67  93 E9        30.14R
RALLS 1SE        N/A     71  70  96 SE5       30.14R
REESE CENTER     N/A     69  67  94 E7        30.15R
SEAGRAVES 1SW    N/A     71  69  95 E7        30.12R
SEMINOLE 2NNE    N/A     71  69  93 E10       30.12R
SLATON 2NE       N/A     70  68  93 E3        30.13R
SNYDER 3E        N/A     70  68  92 SE5       30.09R
SUNDOWN 8SW      N/A     69  67  94 E8        30.14R
TAHOKA 3NNE      N/A     68  66  94 E5        30.12R
WOLFFORTH 6SSW   N/A     69  68  98 E6        30.14R
$$

TXZ031-032-036>038-042>044-210500-
TEXAS TECH WEST TEXAS MESONET/ROLLING PLAINS

CITY           SKY/WX    TMP DP  RH WIND       PRES   REMARKS
ASPERMONT 3NE    N/A     75  71  86 SE2       30.06R
FLUVANNA 3WNW    N/A     71  68  91 E7        30.10R
GUTHRIE 10WSW    N/A     75  71  88 SE5       30.07R
HASKELL 1NW      N/A     75  70  84 S3        30.04S
JAYTON 1SSE      N/A     74  69  86 SE7       30.08R
KNOX CITY 3NW    N/A     76  69  79 S2        30.05R
LK A HENRY 1NW   N/A     73  71  93 SE5       30.09R
NORTHFIELD 1S    N/A     74  71  90 SE3       30.08R
ODELL 4ENE       N/A     76  69  81 SE3       30.05R
PADUCAH 10SW     N/A     73  71  91 S3        30.07R
POST 1NE         N/A     71  70  97 E1        30.10R
RRING SPRGS 3N   N/A     72  70  93 S2        30.11R
SEYMOUR 3NW      N/A     78  68  72 S3        30.03R
SPUR 1W          N/A     73  69  88 E1        30.09R
WEINERT 2NNE     N/A     76  71  86 CALM      30.05R
WHITE RVR 6NE    N/A     72  69  91 E5        30.11R
$$

TXZ052-054-060>062-072-078-127-140-154-169-210500-
TEXAS TECH WEST TEXAS MESONET/PERMIAN BASIN/
CONCHO VALLEY/BIG COUNTRY/EDWARDS PLATEAU

CITY           SKY/WX    TMP DP  RH WIND       PRES   REMARKS
COYANOSA 2N      N/A     75  71  88 E8        30.04R
JUNCTION 1SSW    N/A     77  70  77 E2        30.04S
MERTZON 3NNE     N/A     73  71  92 N1        30.07S
SAN ANGELO 7NW   N/A     74  69  82 E5        30.05S
STRLNG CT 4WSW   N/A     73  70  92 E3        30.07F
ST LAWRNCE 5SW   N/A     72  70  93 E7        30.08S
SWEETWATR 11SW   N/A     72  69  92 E9        30.09S
WALL 1E          N/A     71  68  89 E1        30.05S
$$

TXZ055-058-074-075-080-082-210500-
TEXAS TECH WEST TEXAS MESONET/FAR WEST/SOUTHWEST MOUNTAINS/TRANS PECOS

CITY           SKY/WX    TMP DP  RH WIND       PRES   REMARKS
PRSMN GAP BBNP   N/A     75  69  82 N14       30.03R
GUADLPE MTN NP   N/A     65  62  90 N6        30.23S
$$